Location: Kampong Baru Subang
(3.1500°N, 101.5333°E)
Time: 11:44:19
(UTC+00:00)

Daily predictions for brighter satellites

Satellite Brightness Start Highest point End
(mag) Time Altitude Azimuth Time Altitude Azimuth Time Altitude Azimuth
NOSS 3-3 (A) 4.0 12:02:42 10° SSW 12:07:41 61° WNW 12:12:42 10° NNE
Spelda 2.8 12:05:22 10° W 12:09:44 74° N 12:10:46 33° ENE
HETE-2 4.4 12:07:55 10° W 12:11:50 71° S 12:13:31 31° ESE
Okean 3 Rocket 3.9 12:08:45 10° SSE 12:13:03 44° E 12:17:18 10° NNE
ARIANE 5 DEB (SYLDA 5A) 2.1 12:11:51 10° WSW 12:13:06 27° S 12:13:06 27° S
CZ-3B Rocket 3.8 12:13:23 10° WNW 12:17:22 35° N 12:27:24 13° ENE
GPS 2-12 Rocket1 4.4 12:13:52 10° W 12:17:42 30° NNW 12:20:29 16° NE
Meteor 2-10 4.3 12:15:27 10° SSE 12:20:30 44° E 12:25:42 10° NNE
Ariane 44P Rocket 2.9 12:17:53 10° W 12:20:50 80° S 12:24:59 26° E
H-II Stage 2 3.5 12:17:05 10° NW 12:21:05 69° NE 12:32:59 21° ESE
YAOGAN 3 4.4 12:17:00 10° SSE 12:21:15 71° ENE 12:25:29 10° N
Cosmos 1536 2.7 12:17:47 10° S 12:21:29 51° E 12:25:09 10° NNE
Cosmos 2292 Rocket 3.4 12:18:49 10° NNW 12:21:37 51° W 12:24:36 10° S
Tsikada Rocket 3.9 12:16:25 10° N 12:22:44 73° E 12:29:07 10° S
ADEOS 4.2 12:22:55 31° E 12:23:08 31° ENE 12:27:40 10° NNE
Cosmos 724 4.3 12:18:46 10° S 12:24:28 53° ESE 12:29:33 13° NE
Cosmos 1844 4.3 12:20:37 10° NNW 12:26:03 57° WSW 12:31:34 10° S
Ariane 3 Deb 4.0 12:24:08 10° SW 12:26:39 18° S 12:27:13 17° S
Cosmos 1607 3.9 12:21:38 10° SSW 12:28:00 74° ESE 12:34:25 10° NNE
ARIANE 5 DEB (SYLDA) 3.9 12:20:22 10° WSW 12:28:12 31° SSW 12:29:46 23° SSE
CZ-4B R/B 4.2 12:30:51 30° NE 12:30:51 30° NE 12:33:56 10° NNE
Meteor 2-4 Rocket 3.7 12:25:05 10° N 12:30:53 88° E 12:36:33 10° S
Cosmos 2208 Rocket 3.8 12:26:43 10° S 12:31:53 83° ESE 12:37:05 10° NNE
ATLAS 2A CENTAUR R/B 3.9 12:30:30 10° NW 12:34:30 51° NE 12:38:20 32° E
Cosmos 2237 Rocket 3.6 12:29:34 10° SW 12:34:45 38° WNW 12:39:55 10° N
SPOT 1/Viking Rocket 3.8 12:35:00 43° ENE 12:35:00 43° ENE 12:39:49 10° N
YAOGAN 1 3.1 12:33:51 10° S 12:38:03 57° W 12:42:14 10° NNW
Cosmos 1898 Rocket 4.0 12:37:15 10° NNW 12:42:22 59° WSW 12:47:28 10° S
Meteor 1-11 Rocket 3.6 12:37:42 10° S 12:43:30 76° E 12:49:08 10° N
Tiangong 1.1 12:44:04 10° NW 12:44:34 10° NW 12:45:04 10° NNW
USA 234 3.4 12:40:25 16° SSE 12:45:43 71° SW 12:52:14 10° NW
ARIANE 5 R/B 2.7 12:30:44 10° W 12:45:54 59° S 12:46:39 51° SSE
CZ-3C R/B 1.2 12:38:03 10° WSW 12:49:03 68° SSE 12:49:07 68° SSE
Helios 1B rocket 4.5 12:51:10 10° SSW 12:54:23 25° WSW 12:57:35 10° NW
Aurora 2 Rocket 4.0 12:55:28 10° NW 12:57:23 25° NNW 12:57:23 25° NNW
GPS 2-15 Rocket1 4.0 13:01:03 10° WSW 13:04:21 45° SW 13:04:21 45° SW
Ariane H10 4.1 13:10:17 10° WNW 13:13:37 64° NNW 13:13:37 64° NNW
Hubble Space Telescope 3.1 13:14:11 10° WNW 13:15:41 21° W 13:15:41 21° W
ATLAS CENTAUR R/B 3.8 13:17:15 10° NNW 13:25:15 81° WSW 13:28:02 54° SSE
SL-16 R/B 3.5 13:29:33 10° SW 13:33:27 36° WSW 13:33:27 36° WSW
USA 215 4.3 13:33:28 27° N 13:36:14 39° NW 13:42:13 10° WSW
H-2A R/B 4.2 20:35:09 10° NNE 20:36:59 21° NE 20:36:59 21° NE
Ariane H10-3 3.6 20:47:36 52° S 20:47:59 52° SSE 21:17:28 10° E
Ariane H10-3 3.6 20:47:36 52° S 20:47:59 52° SSE 21:17:27 10° E
Ariane H10-3 3.6 20:47:36 52° S 20:48:00 52° SSE 21:17:27 10° E
Cosmos 1934 Rocket 4.1 21:02:42 10° N 21:09:02 73° E 21:15:22 10° S
CZ-3B R/B 2.8 21:12:16 57° SE 21:12:16 57° SE 21:18:08 10° SE
Cosmos 2227 Rocket 3.4 21:14:26 10° S 21:19:41 40° ESE 21:24:54 10° NE
Cosmos 1727 Rocket 4.3 21:13:56 10° S 21:20:10 67° E 21:26:19 10° N
ARIANE 5 R/B 2.9 21:21:38 38° E 21:21:38 38° E 21:25:25 10° E
Cosmos 2058 Rocket 3.9 21:24:07 41° NNE 21:24:07 41° NNE 21:27:02 10° N
Cosmos 44 4.2 21:19:43 23° S 21:22:46 50° ESE 21:27:48 10° NE
Cosmos 2297 Rocket 2.1 21:27:27 63° WNW 21:27:27 63° WNW 21:32:50 10° N
Meteor 2-13 Rocket 4.3 21:26:09 46° SSW 21:27:51 65° W 21:33:55 10° N
ISS -1.0 21:34:17 12° SSE 21:34:17 12° SSE 21:34:36 10° SSE
CBERS-1 4.1 21:29:01 10° NNE 21:34:05 77° ESE 21:39:11 10° S
Cosmos 2360 Rocket 2.1 21:30:56 10° NNW 21:36:32 84° ENE 21:42:09 10° SSE
ARGOS 3.1 21:36:07 10° NNE 21:41:28 85° E 21:46:52 10° S
Cosmos 1238 Rocket 3.7 21:37:09 10° S 21:42:05 70° E 21:47:34 10° N
SWIFT 3.2 21:42:08 33° N 21:42:58 37° NNE 21:46:37 10° E
Cosmos 2322 Rocket 2.3 21:44:48 17° NW 21:48:57 50° WSW 21:54:21 10° S
BLOCK DM-SL R/B 3.8 21:45:16 30° W 21:49:15 59° SSW 21:53:17 10° ESE
NOSS 2-2 (C) 3.7 21:48:11 39° WSW 21:49:38 55° WNW 21:53:30 10° N
Delta 198 3.9 21:51:04 32° NNW 21:51:04 32° NNW 21:54:13 10° NE
ARIANE 5 R/B 1.5 21:51:39 47° E 21:51:39 47° E 21:53:11 10° E
SME Rocket 3.9 21:48:43 10° N 21:53:01 44° W 21:59:09 10° SSW
Cosmos 2219 Rocket 2.9 21:48:34 10° N 21:53:59 54° ENE 21:59:25 10° SSE
ARIANE 44L R/B 4.2 21:52:11 23° SW 21:54:39 39° SSE 22:12:14 10° ESE
NOSS 2-3 (E) 3.8 21:51:43 10° SSW 21:56:33 66° ESE 22:00:24 10° NNE
Iridium 82 4.5 21:55:37 10° N 21:59:24 71° W 22:03:01 10° S
FengYun 1-2 T 4.1 21:54:03 10° N 21:59:31 84° WNW 22:05:02 10° SSW
Cosmos 1605 Rocket 3.8 21:53:42 10° N 21:59:47 68° W 22:05:49 10° S
ARIANE 5 R/B 3.5 21:59:43 27° SW 22:01:18 42° S 22:06:24 10° ESE
Cosmos 1939 Rocket 4.0 21:58:27 10° NNW 22:00:52 25° NW 22:00:52 25° NW
Cosmos 1825 Rocket 3.8 22:02:04 10° NNW 22:06:11 42° W 22:10:16 10° SSW
GP-B 3.1 22:02:39 10° S 22:06:57 55° W 22:11:14 10° NNW
Sylda 4400 4.2 22:03:07 23° WSW 22:07:14 61° S 22:11:16 10° E
Cosmos 2219 3.8 22:03:41 10° S 22:09:11 58° ESE 22:14:42 10° NNE
Cosmos 540 Rocket 3.9 22:06:10 10° NW 22:10:51 37° WSW 22:15:34 10° SSW
H-2A R/B 1.9 22:09:17 10° N 22:12:13 83° WNW 22:15:10 10° SSW
Cosmos 2333 Rocket 2.6 22:07:08 10° NW 22:12:23 40° WSW 22:17:38 10° S
SL-16 R/B 4.1 22:15:00 11° SW 22:15:00 11° SW 22:15:21 10° SW
SJ-11-01 4.3 22:11:20 10° NNE 22:15:59 83° ESE 22:20:38 10° S
Cosmos 1782 3.7 22:14:53 19° WSW 22:16:21 24° W 22:19:27 10° NNW
GPS 2-17 Rocket1 3.6 22:13:59 21° W 22:16:42 43° NNW 22:21:09 10° NE
Cosmos 468 Rocket 4.4 22:13:55 10° NW 22:18:45 38° WSW 22:23:38 10° S
Cosmos 841 Rocket 3.6 22:14:54 10° N 22:20:01 79° ENE 22:25:10 10° SSE
ARIANE 5 R/B 2.4 22:18:09 10° NNE 22:23:11 87° WNW 22:28:11 10° SSW
SL-4 R/B 1.6 22:27:35 10° SW 22:30:57 63° NW 22:34:30 10° NNE
Cosmos 2322 4.4 22:25:23 10° N 22:30:58 61° ENE 22:36:35 10° SSE
Ariane H10+ -0.3 22:33:13 15° W 22:34:40 64° S 22:37:01 10° ESE
Tiangong -1.1 22:32:40 10° NNW 22:35:38 46° NE 22:38:37 10° ESE
Cosmos 1933 4.4 22:32:40 10° SW 22:35:46 22° W 22:38:52 10° NNW
Ariane H10 3.4 22:32:21 10° WNW 22:36:05 70° N 22:53:15 10° E
ASTRO E2 2.6 22:33:40 11° WNW 22:36:42 43° SSW 22:39:48 10° SE
SeaSat 1 2.7 22:33:36 10° S 22:38:16 46° WSW 22:42:57 10° NW
GPS 2-12 Rocket1 3.9 22:34:38 11° W 22:38:49 37° SSW 22:43:09 10° SE
SKYMED 2 4.5 22:39:02 10° SSE 22:43:16 55° ENE 22:47:30 10° N
Cosmos-2242 4.4 22:41:02 10° SW 22:43:44 17° W 22:46:27 10° NW
